This is the latest recevied weather packets stored in our database for station/object N5CSU. If no packets are shown the sender has not sent any weather packets the latest 10 day(s).
| Time | Temp. | Humidity | Pressure | Rain* | Wind** | Luminosity | Snow |
|---|---|---|---|---|---|---|---|
| 1777592375 | 16.67° C | 81% | 1013.5 hPa | 0 mm | - | 3 W/m² | - |
| 1777592065 | 16.67° C | 82% | 1013.4 hPa | 0 mm | - | 3 W/m² | - |
| 1777591763 | 16.67° C | 82% | 1013.4 hPa | 0 mm | - | 3 W/m² | - |
| 1777591459 | 16.67° C | 83% | 1013.6 hPa | 0 mm | - | 3 W/m² | - |
| 1777591155 | 16.67° C | 81% | 1013.6 hPa | 0 mm | - | 5 W/m² | - |
| 1777590849 | 16.67° C | 81% | 1013.5 hPa | 0 mm | - | 4 W/m² | - |
| 1777590546 | 16.67° C | 81% | 1013.6 hPa | 0 mm | - | 4 W/m² | - |
| 1777590242 | 16.67° C | 82% | 1013.4 hPa | 0 mm | - | 8 W/m² | - |
| 1777589940 | 16.67° C | 82% | 1013.4 hPa | 0 mm | - | 7 W/m² | - |
| 1777589636 | 16.67° C | 82% | 1013.4 hPa | 0 mm | - | 9 W/m² | - |
| 1777589333 | 16.67° C | 83% | 1013.1 hPa | 0 mm | - | 9 W/m² | - |
| 1777589030 | 16.67° C | 82% | 1013.3 hPa | 0 mm | - | 7 W/m² | - |
| 1777588727 | 16.67° C | 82% | 1013.5 hPa | 0 mm | - | 4 W/m² | - |
| 1777588422 | 16.67° C | 81% | 1013.3 hPa | 0 mm | - | 3 W/m² | - |
| 1777588117 | 16.67° C | 84% | 1013.4 hPa | 0 mm | - | 4 W/m² | - |
| 1777587814 | 16.67° C | 83% | 1013.5 hPa | 0 mm | - | 4 W/m² | - |
| 1777587513 | 16.67° C | 82% | 1013.4 hPa | 0 mm | - | 5 W/m² | - |
| 1777587210 | 16.67° C | 82% | 1013.5 hPa | 0 mm | - | 4 W/m² | - |
| 1777586905 | 16.67° C | 84% | 1013.7 hPa | 0 mm | - | 5 W/m² | - |
| 1777586602 | 16.67° C | 84% | 1013.9 hPa | 0 mm | - | 5 W/m² | - |
| 1777586297 | 16.67° C | 85% | 1013.9 hPa | 0 mm | - | 3 W/m² | - |
| 1777585995 | 16.67° C | 85% | 1014 hPa | 0 mm | - | 4 W/m² | - |
| 1777585689 | 16.67° C | 84% | 1014.1 hPa | 0 mm | - | 5 W/m² | - |
| 1777585379 | 16.67° C | 83% | 1014.2 hPa | 0 mm | - | 4 W/m² | - |
| 1777585074 | 16.67° C | 82% | 1014.1 hPa | 0 mm | - | 4 W/m² | - |
* Rain latest hour (hover to see other rain measurements)
** Current wind speed in m/s (hover to see current wind gust speed)